Location: Carrizalito
(10.3833°N, 67.0217°W)
Time: 17:23:13
(UTC+00:00)

Meteor 1-11 Rocket - Pass Details

Date: 10 July 2022
Orbit: 830 x 916 km, 81.2° (Epoch: 18 August)

Event Time Altitude Azimuth Distance (km) Brightness Sun altitude
Exits shadow 06:57:18 21° 72° (ENE) 1,909 5.9 -42.0°
Drops below altitude 10° 07:00:25 10° 42° (NE) 2,586 6.9 -41.4°
Sets 07:03:20 0° 28° (NNE) 3,517 7.7 -40.9°
